Hulianwang W. Digui 16-08

operational
NORAD ID: 67066 Int'l Des: 2025-295 Owner: ZXW Country: CN Constellation: xingwang
LEOCIRCULAR

About Hulianwang W. Digui 16-08

Description loading...

Live Position

Loading 3D Globe...

Upcoming Passes

Altitude History

Altitude vs Time

uPlot chart will show altitude changes over time

Two-Line Element Set

1 67066U 25295H 25346.21273250 -.00000101 00000-0 24354-4 0 9995
2 67066 50.0029 14.4606 0011491 248.6611 111.3077 14.26429655 46
Epoch: Dec 12, 2025 • Age: 45 hours

Current Status

Altitude 802.8 km
Velocity 7.45 km/s
Sub-Earth Point -15.67°S, 90.77°E
Launch Date Dec 11, 2025
Age 3 days
Type other

Technical Details

Classification Payload
Mass 800.00 kg
Dry Mass 800.00 kg
Total Mass 800.00 kg
Length 3.00 m
Diameter 1.00 m
Span 10.00 m
Shape Box + 2 Pan
Manufacturer YINNT
Bus Type Guowang Y
Phase Status In Orbit
Owner/State ZXW/CN

Large Constellations

Loading constellations...